Location: Clanezzo
(45.7500°N, 9.6000°E)
Time: 13:46:12
(UTC+00:00)

STARS - Pass Details

Date: 07 July 2022
Orbit: 620 x 637 km, 98.2° (Epoch: 18 August)

Event Time Altitude Azimuth Distance (km) Brightness Sun altitude
Rises 22:59:46 0° 4° (N) 2,928 ? -21.5°
Reaches altitude 10° 23:02:11 10° 353° (N) 2,013 ? -21.5°
Maximum altitude 23:05:57 29° 293° (WNW) 1,148 ? -21.6°
Enters shadow 23:08:00 20° 250° (WSW) 1,452 ? -21.6°
